This is the latest recevied weather packets stored in our database for station/object 4S6DRJ-13. If no packets are shown the sender has not sent any weather packets the latest 10 day(s).
| Time | Temp. | Humidity | Pressure | Rain* | Wind** | Luminosity | Snow |
|---|---|---|---|---|---|---|---|
| 1787817480 | 30.56° C | 73% | 1008.9 hPa | 0 mm | 0.89 m/s, 284° | 815 W/m² | - |
| 1787817419 | 30.56° C | 73% | 1008.9 hPa | 0 mm | 0.45 m/s, 103° | 801 W/m² | - |
| 1787817358 | 30.56° C | 72% | 1008.8 hPa | 0 mm | 1.79 m/s, 251° | 816 W/m² | - |
| 1787817297 | 30.56° C | 71% | 1009 hPa | 0 mm | 1.79 m/s, 232° | 826 W/m² | - |
| 1787817236 | 30.56° C | 71% | 1008.8 hPa | 0 mm | 1.34 m/s, 266° | 709 W/m² | - |
| 1787817175 | 30.56° C | 71% | 1009 hPa | 0 mm | 1.79 m/s, 187° | 844 W/m² | - |
| 1787817114 | 30.56° C | 71% | 1008.9 hPa | 0 mm | 1.79 m/s, 212° | 742 W/m² | - |
| 1787817053 | 30.56° C | 71% | 1008.8 hPa | 0 mm | 1.34 m/s, 280° | 682 W/m² | - |
| 1787816991 | 30.56° C | 73% | 1008.7 hPa | 0 mm | 0.89 m/s, 286° | 620 W/m² | - |
| 1787816931 | 30.56° C | 73% | 1008.9 hPa | 0 mm | 0.89 m/s, 211° | 661 W/m² | - |
| 1787816871 | 30.56° C | 74% | 1008.8 hPa | 0 mm | 0.89 m/s, 207° | 683 W/m² | - |
| 1787816809 | 30° C | 73% | 1008.9 hPa | 0 mm | 1.79 m/s, 235° | 644 W/m² | - |
| 1787816748 | 30° C | 74% | 1009 hPa | 0 mm | 1.79 m/s, 224° | 770 W/m² | - |
| 1787816687 | 30° C | 74% | 1008.9 hPa | 0 mm | 1.34 m/s, 251° | 693 W/m² | - |
| 1787816625 | 30.56° C | 73% | 1009 hPa | 0 mm | 1.79 m/s, 187° | 683 W/m² | - |
| 1787816565 | 30.56° C | 73% | 1009.1 hPa | 0 mm | 2.68 m/s, 225° | 636 W/m² | - |
| 1787816504 | 30.56° C | 72% | 1009.1 hPa | 0 mm | 1.79 m/s, 249° | 598 W/m² | - |
| 1787816443 | 30.56° C | 72% | 1009 hPa | 0 mm | 2.24 m/s, 202° | 618 W/m² | - |
| 1787816382 | 30.56° C | 73% | 1009.2 hPa | 0 mm | 1.34 m/s, 204° | 550 W/m² | - |
| 1787816322 | 30.56° C | 73% | 1009 hPa | 0 mm | 0.45 m/s, 236° | 601 W/m² | - |
| 1787816260 | 30.56° C | 73% | 1009.1 hPa | 0 mm | 1.34 m/s, 166° | 615 W/m² | - |
| 1787816199 | 30° C | 73% | 1009.2 hPa | 0 mm | 1.34 m/s, 51° | 506 W/m² | - |
| 1787816137 | 30° C | 73% | 1008.9 hPa | 0 mm | 1.79 m/s, 204° | 644 W/m² | - |
| 1787816077 | 30° C | 72% | 1009 hPa | 0 mm | 0.89 m/s, 154° | 640 W/m² | - |
| 1787816016 | 30° C | 72% | 1009.1 hPa | 0 mm | 3.13 m/s, 337° | 702 W/m² | - |
* Rain latest hour (hover to see other rain measurements)
** Current wind speed in m/s (hover to see current wind gust speed)